Regional Weather Roundup
Issued by NWS Boston, MA

Current Version | Previous Version | Text Only | Print | Product List | Glossary Off
Versions: 1 2 3 4 5 6 7 8 9 10 11 12 13 14 15 16 17 18 19 20 21 22 23 24 25 26 27 28 29 30 31 32 33 34 35 36 37 38 39 40 41 42 43 44 45 46 47 48 49 50
000 ASUS41 KBOX 171810 RWRBOX REGIONAL WEATHER ROUNDUP NATIONAL WEATHER SERVICE BOSTON/NORTON MA 200 PM EDT FRI AUG 17 2018 NOTE: "FAIR" INDICATES FEW OR NO CLOUDS BELOW 12,000 FEET WITH NO SIGNIFICANT WEATHER AND/OR OBSTRUCTIONS TO VISIBILITY. MAZALL-171900- EASTERN MASSACHUSETTS CITY SKY/WX TMP DP RH WIND PRES REMARKS BOSTON PTSUNNY 77 71 82 E10 30.04F 6HR MIN TEMP: 73; 6HR MAX TEMP: 77; BEVERLY FAIR 79 69 71 SE8 30.04F LAWRENCE FAIR 85 69 58 E9 30.05F BEDFORD FAIR 85 68 56 E5 30.02F BLUE HILL N/A 81 72 74 NE8 30.05F NORWOOD FAIR 87 74 64 NE8 30.01F HX 95 MARSHFIELD FAIR 82 68 61 SE8 30.04F PLYMOUTH FAIR 87 71 58 SE6 30.04F HX 93 TAUNTON FAIR 90 71 53 VRB5 30.02F HX 96 NEW BEDFORD FAIR 87 74 64 S9 30.03F HX 95 $$ MAZALL-171900- CAPE COD AND THE ISLANDS CITY SKY/WX TMP DP RH WIND PRES REMARKS FALMOUTH FAIR 86 72 62 S12 30.05F HX 92 HYANNIS FAIR 81 74 79 VRB6 30.04F CHATHAM FAIR 82 70 66 VRB5 30.07F PROVINCETOWN FAIR 84 67 56 S6 30.05F NANTUCKET FAIR 82 76 81 SW8 30.06F MARTHAS VNYRD FAIR 84 74 71 SW12 30.05F HX 91 $$ MAZALL-171900- CENTRAL AND WESTERN MASSACHUSETTS CITY SKY/WX TMP DP RH WIND PRES REMARKS WORCESTER PTSUNNY 81 71 71 S12 30.05F 6HR MIN TEMP: 68; 6HR MAX TEMP: 82; FITCHBURG FAIR 83 67 58 SE8 30.03F ORANGE FAIR 86 70 58 S9 30.02F HX 90 SPRINGFIELD LGT RAIN 86 70 58 SW14G21 29.99F HX 90 WESTFIELD N/A 82 75 79 SW9 30.00F NORTH ADAMS FAIR 80 71 74 NE5 30.01F PITTSFIELD CLOUDY 79 68 69 SE8 30.03F $$ RIZALL-171900- RHODE ISLAND CITY SKY/WX TMP DP RH WIND PRES REMARKS PROVIDENCE CLOUDY 82 73 74 SE8 30.03F 6HR MIN TEMP: 74; 6HR MAX TEMP: 86; NEWPORT FAIR 83 73 72 S8 30.04F BLOCK ISLAND FAIR 80 74 81 SW13 30.06F SMITHFIELD CLOUDY 83 73 72 S3 30.04F WESTERLY FAIR 86 75 69 S6 30.05F HAZE HX 95 $$ CTZALL-171900- CONNECTICUT CITY SKY/WX TMP DP RH WIND PRES REMARKS BRADLEY INTL RAIN 83 73 72 SW8 30.01F 6HR MIN TEMP: 72; 6HR MAX TEMP: 87; 6HR PCP: 0.05; HARTFORD FAIR 88 71 57 S12 30.00F HX 94 BRIDGEPORT LGT RAIN 83 74 74 SE9 30.02F DANBURY FAIR 85 72 65 S9 30.04F HX 91 GROTON FAIR 81 74 79 S6 30.03F HAZE NEW HAVEN PTSUNNY 87 74 64 SE6 30.03F HX 95 CHESTER FAIR 86 72 62 S7 30.05F HX 92 MERIDEN FAIR 86 70 58 S8 30.01F HX 90 WILLIMANTIC FAIR 87 73 62 SW8 30.02F HX 94 OXFORD FAIR 84 74 71 S8 30.06F HX 91 $$ MEZ002-015-021-024-NHZ003-005-008-011-012-014-VTZ005-008-171900- NORTHERN NEW ENGLAND CITY SKY/WX TMP DP RH WIND PRES REMARKS PORTLAND ME PTSUNNY 76 56 49 S9 30.07F 6HR MIN TEMP: 64; 6HR MAX TEMP: 77; BANGOR ME PTSUNNY 76 59 55 S9 30.05F CONCORD NH FAIR 81 65 58 SE5 30.03F MANCHESTER NH PTSUNNY 82 66 58 S9 30.01F NASHUA NH FAIR 84 70 62 VRB3 30.03F PORTSMOUTH NH MOSUNNY 75 63 67 E9 30.05F JAFFREY NH PTSUNNY 83 69 62 SW6 30.06F KEENE NH FAIR N/A N/A N/A NW3 30.02F BURLINGTON VT LGT RAIN 74 69 85 S10G20 29.96F MT. WASHINGTON FOG 55 55 100 W39 N/A VSB 1/16 $$ NYZ052-076-171900- EASTERN NEW YORK CITY SKY/WX TMP DP RH WIND PRES REMARKS ALBANY CLOUDY 78 72 81 SE5 29.98F 6HR MIN TEMP: 71; 6HR MAX TEMP: 78; 6HR PCP: 0.15; NEW YORK CITY PTSUNNY 88 72 58 S12G22 30.00F HX 94 6HR MIN TEMP: 83; 6HR MAX TEMP: 91; $$ ANZALL-171900- MARINE OBSERVATIONS STATION/POSITION TIME TEMP WIND PRES VSBY WAVE AIR SEA DIR/SP/G HT/PER (UTC) (F) (DEG/KT/KT) (MB) (MI) (FT/S) BOSTON BUOY 1750 73 74 90/ 8/ 10 1016.7F 1/ 6 BUZZARDS BAY 1700 74 200/ 5/ 6 1018.4F NANTUCKET SOUND 1750 76 77 180/ 6/ 8 1017.6F 1 MASS BAY-STELLWA 1704 71 69 80/ 6/ 6 1016.3F 1 7/8 1/ 6 ISLE OF SHOALS 1700 67 60/ 7/ 8 1018.0F S OF BLOCK IS 1743 78 N/A 2/ 4 $$ ......................KEY......................... SKY/WX - SKY CONDITION/PRESENT WEATHER TMP - TEMPERATURE IN FAHRENHEIT DWPT - DEWPOINT IN FAHRENHEIT RH - RELATIVE HUMIDITY IN PERCENT WIND - DIRECTION AND SPEED IN MPH PRES - MEAN SEA LEVEL PRESSURE IN INCHES OF HG WCI - WIND CHILL INDEX VSB - VISIBILITY IN MILES HX - HEAT INDEX TC - TEMPERATURE IN CELSIUS VRB - VARIABLE WIND DIRECTION N/A - NOT AVAILABLE

USA.gov is the U.S. government's official web portal to all federal, state and local government web resources and services.